Wind_Speed
3 3 3 3 2 2 2 2 2 2 2 2 2 2 2 2 2 1 1 1 1 1 1 1 2 2 1 1 0 0 1 2 2 2 2 3 3 2 2 2 3 3 3
2 2 2 1 2 2 1 1 2 2 1 1 1 1 1 1 1 0 1 1 1 1 1 1 1 0 0 1 0 0 1 2 2 2 3 3 3 3 3 3 3 4 4
2 1 1 1 1 0 0 1 1 1 1 0 1 1 1 0 0 1 1 1 0 0 0 1 1 1 0 0 1 0 1 1 2 2 3 3 3 3 4 4 4 4 5
2 2 1 1 1 1 1 1 1 1 1 1 1 1 1 1 1 2 1 1 1 1 2 2 2 2 2 2 2 1 1 1 2 3 3 3 4 4 4 5 5 5 5
4 2 1 1 2 2 1 1 1 1 1 1 1 1 2 2 2 2 2 2 2 2 2 3 4 4 4 4 4 2 2 3 3 3 3 4 4 5 6 6 6 6 6
3 3 2 1 1 2 2 1 1 1 1 1 1 1 2 2 2 2 2 3 2 3 3 4 5 5 5 5 4 4 4 4 4 4 4 5 6 6 6 7 8 8 8
4 3 2 1 1 1 1 1 1 1 2 2 2 2 2 2 2 3 3 3 3 4 5 5 5 5 4 5 5 5 6 5 5 5 6 6 7 7 8 8 9 9 9
4 3 2 2 1 2 2 1 1 2 3 3 3 3 3 3 3 4 4 4 5 5 6 6 5 5 5 5 6 6 7 7 6 7 8 8 8 8 9 9 10 10 11
4 3 3 2 1 1 1 2 2 2 2 3 4 4 4 4 4 4 5 5 5 6 6 6 6 6 6 6 7 8 8 8 8 9 10 10 10 10 10 11 11 11 11
5 4 3 3 2 2 2 2 3 3 4 4 4 5 5 4 5 5 6 6 6 6 6 7 7 8 8 8 9 9 9 10 10 11 11 11 12 12 12 12 12 12 13
5 5 4 4 4 3 3 3 4 4 4 5 5 5 5 5 5 6 6 7 8 7 7 7 8 8 9 10 11 11 11 11 12 12 13 13 13 13 14 14 14 14 15
5 6 5 5 4 3 3 4 4 5 5 5 5 5 6 6 6 7 7 8 8 9 9 8 8 8 9 10 11 11 12 12 13 13 14 14 15 15 15 16 16 16 16
6 6 6 6 5 4 4 5 5 6 6 6 6 6 6 6 7 7 7 8 9 10 10 10 11 10 11 11 12 12 12 13 14 14 14 15 15 16 16 17 18 18 18
6 6 6 6 5 5 6 6 6 7 7 7 7 7 7 8 8 8 9 9 10 11 11 12 12 12 12 13 14 14 14 14 15 15 15 15 15 16 17 18 19 19 20
6 6 6 7 6 6 7 7 8 7 8 8 8 8 9 9 9 9 10 10 10 11 12 13 13 14 14 15 15 14 14 15 16 16 16 17 17 17 18 18 19 20 20
6 6 7 7 7 7 8 8 9 9 8 8 8 8 9 10 10 10 11 11 12 13 13 14 14 14 15 15 15 15 15 15 16 16 17 18 18 18 19 19 19 20 22
7 7 8 8 7 8 8 8 9 9 9 9 10 10 10 11 11 11 11 11 12 13 14 14 15 15 16 16 16 16 16 17 17 17 17 18 19 20 20 21 21 21 22
8 8 9 9 9 9 9 9 10 9 9 10 11 11 11 11 11 11 12 13 13 14 15 16 17 17 17 17 18 18 18 17 18 18 19 20 21 22 22 22 22 24 25
9 10 10 10 10 10 10 10 10 10 10 10 11 11 12 12 12 12 13 14 14 15 16 17 18 18 18 18 18 19 18 19 20 20 21 22 22 23 24 24 25 26 26
11 11 11 12 12 11 11 11 11 11 11 11 11 12 12 12 12 13 13 14 15 16 17 18 17 18 18 19 19 20 21 21 22 22 23 23 24 24 24 25 27 28 28
12 12 12 13 12 12 12 12 12 12 12 12 13 13 13 13 13 14 15 15 16 17 17 18 19 19 20 20 20 21 22 23 24 24 25 25 26 26 27 27 28 29 30
13 13 13 13 13 13 13 14 14 14 14 14 14 14 14 14 15 15 15 16 17 18 18 19 19 19 20 21 22 23 24 24 24 25 26 27 27 28 29 30 30 31 31
15 14 15 15 15 15 16 16 15 16 16 16 16 16 16 16 16 16 17 17 18 18 19 19 19 20 21 22 23 24 24 25 26 27 28 29 30 30 30 30 31 32 33
16 16 16 16 16 16 17 16 16 17 17 18 18 18 19 19 18 19 19 19 19 20 21 21 21 21 22 23 24 25 26 27 28 28 29 29 30 31 31 31 32 33 35
16 17 17 17 17 18 17 17 17 17 17 18 18 19 20 20 20 21 21 21 21 22 22 22 23 24 24 26 27 27 28 28 29 29 29 30 31 32 33 34 35 36 37
17 17 17 17 18 18 17 17 17 18 18 19 20 20 20 21 21 22 22 22 22 23 24 24 25 26 27 28 29 29 29 29 30 30 30 32 33 33 34 35 36 36 38
Wind_Direction
82 82 101 114 120 121 122 129 135 137 128 119 115 111 111 126 108 78 63 49 60 54 43 69 112 103 110 78 54 127 195 185 184 174 183 185 188 188 184 190 200 204 209
70 79 86 87 86 91 105 135 156 161 156 134 145 166 164 160 151 101 1 25 57 61 32 61 92 75 34 5 285 219 178 162 175 187 198 193 196 197 195 198 208 216 220
42 58 75 52 53 44 132 171 169 209 220 224 203 211 217 217 247 277 299 351 276 242 265 266 288 285 250 285 257 235 167 174 185 197 204 213 216 213 216 222 226 228 234
33 20 340 328 319 313 274 210 211 232 198 193 226 218 258 301 293 282 280 275 275 279 260 255 267 275 261 253 259 259 292 210 200 205 219 234 233 235 236 235 242 242 245
21 18 355 329 313 303 286 278 261 238 196 167 209 234 274 293 299 302 276 264 276 284 273 264 267 267 263 265 257 279 273 247 229 231 235 241 249 251 246 249 253 253 253
8 3 360 324 313 315 296 283 288 228 202 204 227 248 279 294 300 317 302 283 283 282 276 268 265 268 270 270 268 269 267 263 247 251 254 253 255 263 259 256 255 257 256
349 344 349 338 301 321 308 286 266 239 228 237 258 267 281 304 308 318 313 308 305 301 289 281 270 271 277 277 281 269 269 269 264 264 266 265 262 267 267 264 262 260 261
340 330 328 341 326 297 284 281 266 257 255 252 267 273 280 294 298 305 308 302 302 303 301 292 289 284 287 288 283 278 277 278 271 273 276 277 273 270 269 265 264 262 263
341 332 329 321 333 281 271 272 262 268 264 260 269 281 287 291 297 300 302 300 302 300 297 293 293 285 282 284 281 280 279 279 273 274 277 277 277 276 271 269 266 265 265
331 327 318 317 330 306 275 279 276 269 273 276 276 279 285 287 296 297 296 299 299 298 297 297 296 289 285 282 283 284 281 275 274 273 275 277 276 275 274 271 270 265 266
324 325 318 314 305 304 289 279 278 282 282 283 283 282 282 282 286 288 293 295 298 295 292 291 287 284 285 285 283 284 284 280 279 277 276 277 277 275 273 270 269 267 267
321 322 320 313 300 297 296 293 291 288 286 284 281 281 283 283 286 289 293 294 297 295 296 293 286 282 284 286 286 288 285 283 285 281 275 274 276 275 273 272 272 270 269
320 321 321 313 301 292 299 305 302 296 289 285 281 283 283 285 287 288 293 297 298 298 298 295 290 287 288 289 291 291 286 286 288 286 282 276 274 275 274 272 271 271 271
316 317 317 314 299 294 298 301 301 298 296 291 285 282 280 279 282 282 286 291 293 296 299 298 293 291 291 291 292 290 286 286 286 285 286 282 277 276 277 274 272 272 272
316 317 317 314 302 301 299 299 298 298 297 292 286 284 282 283 285 283 286 287 289 293 293 295 295 293 291 291 293 292 287 285 283 284 285 283 280 281 280 279 275 275 275
313 313 317 317 310 305 300 299 297 296 298 292 287 288 287 288 289 286 285 288 293 292 291 294 296 295 293 291 291 293 293 289 288 287 286 283 281 283 283 282 280 277 276
307 308 313 315 311 305 302 300 299 296 292 291 292 291 291 294 290 288 288 292 294 295 295 295 295 295 291 290 290 290 292 292 291 289 289 288 284 284 284 280 282 283 280
301 304 305 307 308 305 302 300 297 296 293 292 293 294 296 297 291 289 289 290 293 296 296 293 292 295 294 291 290 288 289 290 291 292 292 291 288 286 285 281 282 283 283
295 299 301 304 304 301 299 301 298 297 295 295 296 296 298 298 295 290 290 291 294 298 297 295 292 293 294 291 289 291 290 288 290 291 292 291 290 288 286 282 282 283 283
291 292 294 298 299 297 298 298 298 296 296 295 295 297 295 295 292 289 290 292 296 300 300 297 296 295 297 296 294 293 292 292 291 291 291 291 290 289 288 286 285 284 285
287 289 291 294 295 294 295 295 296 294 294 293 294 295 294 291 291 289 290 293 296 299 300 301 298 295 295 296 294 294 294 293 294 293 292 292 291 290 288 287 286 286 286
286 286 287 291 292 293 292 291 291 290 290 290 291 291 291 290 290 292 292 293 298 300 301 302 300 298 297 296 295 295 296 295 295 294 294 293 293 291 290 289 288 288 288
283 283 283 285 287 289 290 290 286 286 287 289 291 291 289 287 287 289 290 293 296 298 300 302 302 300 299 299 298 298 298 298 297 296 295 294 292 291 291 290 289 289 289
284 283 283 284 286 289 290 289 286 285 287 287 289 289 288 287 285 287 290 292 294 297 299 301 302 302 300 299 300 300 299 299 298 298 297 295 295 293 292 292 291 292 292
284 284 287 287 287 288 287 287 287 288 288 289 289 289 288 286 286 287 289 290 292 294 296 300 301 302 301 301 301 301 300 299 299 298 297 296 296 294 293 293 293 293 293
283 284 287 288 288 288 288 289 288 287 289 290 291 291 290 288 288 288 288 289 291 293 294 297 299 300 301 301 301 301 300 299 298 298 297 297 296 296 295 295 295 294 295
Height
5902 5902 5902 5902 5902 5902 5902 5902 5902 5902 5902 5902 5902 5902 5902 5902 5902 5902 5901 5901 5901 5901 5901 5901 5901 5900 5900 5900 5899 5899 5899 5900 5900 5900 5900 5901 5901 5902 5902 5902 5902 5903 5903
5903 5902 5902 5902 5902 5902 5902 5902 5902 5902 5902 5902 5902 5902 5902 5902 5902 5902 5902 5901 5901 5901 5901 5901 5901 5901 5900 5900 5899 5899 5899 5899 5900 5900 5900 5901 5901 5901 5902 5902 5902 5902 5903
5903 5903 5903 5903 5903 5902 5902 5902 5902 5902 5903 5903 5903 5903 5902 5902 5902 5902 5902 5901 5901 5901 5901 5901 5901 5901 5900 5900 5899 5899 5899 5899 5899 5900 5900 5900 5901 5901 5901 5901 5901 5902 5902
5903 5903 5903 5903 5903 5903 5902 5902 5902 5903 5903 5903 5902 5902 5902 5902 5902 5902 5901 5901 5901 5901 5901 5901 5900 5900 5900 5899 5899 5899 5899 5899 5899 5899 5900 5900 5900 5900 5900 5900 5900 5900 5901
5904 5903 5903 5903 5903 5903 5903 5902 5903 5902 5902 5902 5902 5902 5902 5902 5902 5901 5901 5901 5900 5900 5900 5900 5899 5899 5899 5899 5899 5898 5898 5898 5898 5898 5898 5899 5899 5899 5899 5899 5899 5899 5900
5904 5903 5903 5903 5902 5902 5902 5902 5902 5902 5902 5902 5902 5902 5902 5902 5902 5901 5901 5900 5900 5900 5899 5899 5898 5898 5898 5898 5898 5898 5897 5897 5897 5897 5897 5898 5898 5898 5898 5898 5898 5898 5898
5904 5903 5903 5902 5902 5902 5902 5902 5902 5902 5902 5902 5902 5902 5902 5902 5901 5901 5900 5900 5899 5899 5899 5898 5897 5897 5897 5897 5897 5896 5896 5896 5896 5896 5896 5896 5896 5896 5896 5896 5896 5896 5896
5903 5903 5902 5902 5901 5901 5901 5902 5902 5902 5902 5902 5902 5902 5902 5902 5901 5900 5900 5899 5899 5898 5898 5897 5897 5896 5896 5896 5895 5895 5895 5895 5895 5895 5895 5894 5894 5894 5894 5894 5894 5894 5894
5903 5903 5902 5902 5901 5901 5901 5901 5901 5901 5901 5902 5901 5901 5901 5901 5900 5900 5899 5898 5898 5897 5897 5896 5896 5895 5895 5895 5894 5894 5893 5893 5893 5893 5893 5892 5892 5892 5891 5891 5891 5891 5891
5903 5903 5902 5901 5901 5901 5901 5901 5900 5901 5901 5901 5900 5900 5900 5900 5899 5899 5898 5897 5897 5896 5895 5895 5894 5894 5893 5893 5892 5892 5891 5891 5891 5890 5890 5890 5889 5889 5888 5888 5888 5888 5887
5903 5902 5902 5901 5901 5900 5900 5900 5900 5900 5900 5900 5899 5899 5899 5898 5898 5897 5897 5896 5895 5895 5894 5893 5893 5892 5891 5891 5890 5889 5889 5888 5888 5887 5887 5887 5886 5886 5885 5885 5884 5884 5884
5902 5902 5901 5900 5900 5900 5900 5899 5899 5899 5899 5899 5898 5898 5898 5897 5896 5896 5895 5894 5894 5893 5892 5891 5891 5890 5889 5888 5887 5887 5886 5885 5885 5884 5883 5883 5882 5882 5881 5881 5880 5880 5880
5902 5901 5901 5900 5899 5899 5898 5898 5898 5898 5897 5897 5897 5897 5896 5895 5895 5894 5894 5893 5892 5891 5890 5889 5888 5887 5887 5886 5885 5884 5883 5882 5882 5881 5879 5879 5878 5878 5877 5876 5876 5876 5875
5902 5901 5900 5899 5898 5898 5897 5897 5897 5896 5896 5895 5895 5895 5894 5894 5893 5893 5892 5891 5890 5889 5888 5887 5885 5885 5884 5883 5882 5881 5880 5879 5878 5877 5876 5875 5874 5874 5873 5872 5871 5871 5870
5901 5900 5899 5899 5898 5897 5896 5896 5895 5895 5894 5894 5893 5893 5892 5892 5891 5890 5889 5888 5888 5887 5886 5884 5883 5882 5881 5880 5879 5877 5876 5875 5874 5873 5872 5871 5870 5869 5868 5867 5866 5866 5865
5900 5899 5898 5898 5897 5896 5895 5894 5894 5893 5892 5892 5891 5891 5890 5889 5888 5887 5887 5886 5885 5884 5882 5881 5879 5878 5877 5876 5875 5874 5872 5871 5870 5869 5867 5866 5866 5865 5864 5863 5861 5860 5859
5899 5898 5897 5896 5895 5895 5894 5893 5892 5891 5890 5890 5889 5888 5887 5886 5885 5884 5884 5883 5881 5880 5879 5878 5876 5875 5874 5872 5871 5870 5868 5867 5866 5865 5863 5862 5861 5859 5858 5857 5856 5855 5853
5897 5896 5896 5895 5894 5893 5891 5891 5890 5889 5888 5887 5886 5885 5884 5883 5882 5882 5881 5880 5878 5876 5875 5874 5872 5871 5870 5868 5867 5865 5864 5862 5861 5860 5858 5857 5855 5854 5853 5851 5850 5849 5847
5895 5894 5894 5893 5892 5891 5889 5888 5887 5887 5886 5885 5884 5883 5882 5880 5879 5879 5878 5876 5875 5873 5871 5870 5868 5867 5865 5863 5862 5861 5859 5858 5856 5855 5853 5851 5850 5848 5847 5845 5844 5842 5840
5893 5892 5891 5890 5889 5888 5887 5886 5885 5884 5883 5882 5881 5880 5879 5878 5876 5875 5874 5873 5871 5869 5867 5865 5864 5862 5861 5859 5857 5856 5854 5852 5851 5849 5847 5845 5844 5842 5840 5839 5837 5835 5833
5889 5889 5888 5887 5886 5885 5884 5883 5882 5881 5880 5879 5878 5877 5875 5874 5873 5872 5871 5869 5867 5865 5863 5861 5860 5858 5856 5854 5852 5850 5849 5847 5845 5843 5841 5839 5837 5835 5833 5831 5829 5827 5825
5886 5886 5885 5884 5883 5882 5881 5880 5879 5878 5877 5876 5874 5873 5872 5871 5869 5868 5867 5865 5864 5862 5860 5858 5855 5854 5852 5850 5848 5845 5843 5841 5839 5837 5834 5832 5830 5828 5826 5823 5821 5819 5817
5883 5882 5881 5881 5880 5878 5877 5876 5875 5874 5873 5872 5871 5869 5868 5867 5866 5864 5863 5861 5859 5857 5856 5854 5851 5849 5847 5845 5842 5840 5837 5835 5833 5830 5827 5825 5822 5820 5817 5815 5813 5810 5808
5879 5878 5877 5876 5875 5874 5873 5872 5871 5870 5869 5868 5867 5865 5864 5862 5861 5860 5858 5857 5855 5853 5851 5849 5847 5844 5842 5839 5837 5835 5832 5829 5826 5823 5820 5818 5814 5812 5809 5806 5804 5801 5798
5874 5874 5873 5872 5871 5870 5869 5868 5867 5866 5865 5863 5862 5861 5859 5858 5856 5855 5853 5852 5850 5848 5846 5843 5841 5838 5836 5833 5831 5828 5825 5822 5819 5816 5813 5810 5807 5803 5800 5797 5794 5791 5788
5870 5869 5868 5867 5867 5866 5865 5864 5862 5861 5860 5859 5857 5856 5854 5853 5851 5849 5848 5846 5844 5842 5840 5838 5835 5832 5830 5827 5824 5821 5818 5815 5812 5809 5805 5802 5799 5795 5792 5788 5785 5781 5778